Location: *
(2.5500°S, 65.9667°W)
Time: 11:01:33
(UTC+00:00)

H-2A R/B - Pass Details

Date: 29 May 2022
Orbit: 526 x 647 km, 98.3° (Epoch: 02 July)

Event Time Altitude Azimuth Distance (km) Brightness Sun altitude
Exits shadow 00:49:36 12° 344° (NNW) 1,872 5.4 -35.2°
Drops below altitude 10° 00:49:57 10° 344° (NNW) 2,011 5.6 -35.3°
Sets 00:52:07 0° 346° (NNW) 2,902 6.5 -35.8°
